Terug naar catalogus

6GSTARLAB

ActiefCommunicatieSSO
NORAD 66683·PAYLOAD·🇪🇸 Spain

Gelanceerd Nov 28, 2025 vanaf Vandenberg Space Force Base

Loading…

Volgende Passages (komende 24 uur)

TLE

VersSource: Space-Track

Epoch: Sep 14, 2026, 11:20 UTC

1 66683U 25276T   26257.47236558  .00002271  00000-0  11231-3 0  9996
2 66683  97.4168 329.2269 0007012  54.1769 306.0116 15.18815694 43957

Volg 6GSTARLAB in realtime met AllMySat

Download on the App Store